Time,TemperatureF,DewpointF,PressureIn,WindDirection,WindDirectionDegrees,WindSpeedMPH,WindSpeedGustMPH,Humidity,HourlyPrecipIn,Conditions,Clouds,dailyrainin,SoftwareType,DateUTC
2013-04-21 00:11:00,50.5,33.0,29.89,NW,305,8.0,-999.0,52,-99.99,,,0.00,weatherlink.com 1.10,2013-04-21 07:11:00,
2013-04-21 00:26:00,50.5,33.0,29.87,NNW,343,6.0,-999.0,51,-99.99,,,0.00,weatherlink.com 1.10,2013-04-21 07:26:00,
2013-04-21 00:41:00,50.1,34.0,29.87,NNE,25,0.0,-999.0,54,-99.99,,,0.00,weatherlink.com 1.10,2013-04-21 07:41:00,
2013-04-21 00:57:00,49.8,34.0,29.87,North,0,0.0,-999.0,54,-99.99,,,0.00,weatherlink.com 1.10,2013-04-21 07:57:00,
2013-04-21 01:11:00,49.7,33.0,29.87,North,7,5.0,-999.0,54,-99.99,,,0.00,weatherlink.com 1.10,2013-04-21 08:11:00,
2013-04-21 01:26:00,49.7,34.0,29.87,NE,45,3.0,-999.0,55,-99.99,,,0.00,weatherlink.com 1.10,2013-04-21 08:26:00,
2013-04-21 01:41:00,49.7,34.0,29.86,North,356,7.0,-999.0,55,-99.99,,,0.00,weatherlink.com 1.10,2013-04-21 08:41:00,
2013-04-21 01:56:00,49.7,34.0,29.86,North,1,4.0,-999.0,56,-99.99,,,0.00,weatherlink.com 1.10,2013-04-21 08:56:00,
2013-04-21 02:11:00,49.5,34.0,29.85,North,4,3.0,-999.0,56,-99.99,,,0.00,weatherlink.com 1.10,2013-04-21 09:11:00,
2013-04-21 02:26:00,49.5,34.0,29.86,North,359,7.0,-999.0,56,-99.99,,,0.00,weatherlink.com 1.10,2013-04-21 09:26:00,
2013-04-21 02:41:00,48.8,34.0,29.86,North,4,0.0,-999.0,58,-99.99,,,0.00,weatherlink.com 1.10,2013-04-21 09:41:00,
2013-04-21 02:57:00,48.2,34.0,29.86,NNE,27,0.0,-999.0,59,-99.99,,,0.00,weatherlink.com 1.10,2013-04-21 09:57:00,
2013-04-21 03:11:00,48.0,35.0,29.86,NNW,347,1.0,-999.0,60,-99.99,,,0.00,weatherlink.com 1.10,2013-04-21 10:11:00,
2013-04-21 03:26:00,48.5,34.0,29.85,NE,37,0.0,-999.0,58,-99.99,,,0.00,weatherlink.com 1.10,2013-04-21 10:26:00,
2013-04-21 03:41:00,48.5,33.0,29.85,NE,52,0.0,-999.0,56,-99.99,,,0.00,weatherlink.com 1.10,2013-04-21 10:41:00,
2013-04-21 03:56:00,48.5,30.0,29.85,North,359,0.0,-999.0,50,-99.99,,,0.00,weatherlink.com 1.10,2013-04-21 10:56:00,
2013-04-21 04:11:00,51.1,15.0,29.85,North,0,2.0,-999.0,24,-99.99,,,0.00,weatherlink.com 1.10,2013-04-21 11:11:00,
2013-04-21 04:26:00,52.8,13.0,29.83,North,0,1.0,-999.0,20,-99.99,,,0.00,weatherlink.com 1.10,2013-04-21 11:26:00,
2013-04-21 04:41:00,52.9,15.0,29.83,North,359,2.0,-999.0,22,-99.99,,,0.00,weatherlink.com 1.10,2013-04-21 11:41:00,
2013-04-21 04:56:00,52.3,14.0,29.83,NNE,25,0.0,-999.0,22,-99.99,,,0.00,weatherlink.com 1.10,2013-04-21 11:56:00,
2013-04-21 05:12:00,51.0,15.0,29.83,NE,55,0.0,-999.0,24,-99.99,,,0.00,weatherlink.com 1.10,2013-04-21 12:12:00,
2013-04-21 05:26:00,51.3,15.0,29.86,NW,308,0.0,-999.0,24,-99.99,,,0.00,weatherlink.com 1.10,2013-04-21 12:26:00,
2013-04-21 05:41:00,50.7,17.0,29.85,NNW,328,0.0,-999.0,26,-99.99,,,0.00,weatherlink.com 1.10,2013-04-21 12:41:00,
2013-04-21 05:56:00,51.0,18.0,29.86,NNW,328,0.0,-999.0,27,-99.99,,,0.00,weatherlink.com 1.10,2013-04-21 12:56:00,
2013-04-21 06:11:00,50.5,18.0,29.86,WSW,243,0.0,-999.0,28,-99.99,,,0.00,weatherlink.com 1.10,2013-04-21 13:11:00,
2013-04-21 06:26:00,51.0,18.0,29.90,WNW,289,0.0,-999.0,27,-99.99,,,0.00,weatherlink.com 1.10,2013-04-21 13:26:00,
2013-04-21 06:41:00,51.1,17.0,29.91,SSE,161,0.0,-999.0,26,-99.99,,,0.00,weatherlink.com 1.10,2013-04-21 13:41:00,
2013-04-21 06:56:00,51.9,20.0,29.90,ESE,107,0.0,-999.0,28,-99.99,,,0.00,weatherlink.com 1.10,2013-04-21 13:56:00,
2013-04-21 07:11:00,51.6,19.0,29.91,ESE,109,0.0,-999.0,28,-99.99,,,0.00,weatherlink.com 1.10,2013-04-21 14:11:00,
2013-04-21 07:26:00,52.3,20.0,29.94,ESE,121,2.0,-999.0,28,-99.99,,,0.00,weatherlink.com 1.10,2013-04-21 14:26:00,
2013-04-21 07:41:00,53.8,22.0,29.93,ESE,102,0.0,-999.0,29,-99.99,,,0.00,weatherlink.com 1.10,2013-04-21 14:41:00,
2013-04-21 07:57:00,55.9,22.0,29.93,East,100,2.0,-999.0,27,-99.99,,,0.00,weatherlink.com 1.10,2013-04-21 14:57:00,
2013-04-21 08:12:00,57.1,23.0,29.91,East,100,0.0,-999.0,27,-99.99,,,0.00,weatherlink.com 1.10,2013-04-21 15:12:00,
2013-04-21 08:27:00,59.2,23.0,29.89,ESE,112,0.0,-999.0,25,-99.99,,,0.00,weatherlink.com 1.10,2013-04-21 15:27:00,
2013-04-21 08:41:00,59.6,24.0,29.89,ESE,103,0.0,-999.0,26,-99.99,,,0.00,weatherlink.com 1.10,2013-04-21 15:41:00,
2013-04-21 08:57:00,62.4,22.0,29.89,ESE,113,0.0,-999.0,21,-99.99,,,0.00,weatherlink.com 1.10,2013-04-21 15:57:00,
2013-04-21 09:12:00,63.8,4.0,29.89,SSE,150,0.0,-999.0,9,-99.99,,,0.00,weatherlink.com 1.10,2013-04-21 16:12:00,
2013-04-21 09:27:00,64.8,16.0,29.88,East,97,2.0,-999.0,15,-99.99,,,0.00,weatherlink.com 1.10,2013-04-21 16:27:00,
2013-04-21 09:42:00,64.4,11.0,29.88,SE,127,5.0,-999.0,12,-99.99,,,0.00,weatherlink.com 1.10,2013-04-21 16:42:00,
2013-04-21 09:57:00,65.1,15.0,29.88,East,79,0.0,-999.0,14,-99.99,,,0.00,weatherlink.com 1.10,2013-04-21 16:57:00,
2013-04-21 10:12:00,65.6,7.0,29.89,ESE,102,0.0,-999.0,10,-99.99,,,0.00,weatherlink.com 1.10,2013-04-21 17:12:00,
2013-04-21 10:26:00,65.4,11.0,29.89,ESE,103,0.0,-999.0,12,-99.99,,,0.00,weatherlink.com 1.10,2013-04-21 17:26:00,
2013-04-21 10:41:00,65.7,20.0,29.89,West,270,3.0,-999.0,17,-99.99,,,0.00,weatherlink.com 1.10,2013-04-21 17:41:00,
2013-04-21 10:57:00,66.4,26.0,29.89,WSW,256,2.0,-999.0,22,-99.99,,,0.00,weatherlink.com 1.10,2013-04-21 17:57:00,
2013-04-21 11:11:00,66.9,26.0,29.88,SSW,203,1.0,-999.0,21,-99.99,,,0.00,weatherlink.com 1.10,2013-04-21 18:11:00,
2013-04-21 11:26:00,67.5,26.0,29.89,NW,305,3.0,-999.0,21,-99.99,,,0.00,weatherlink.com 1.10,2013-04-21 18:26:00,
2013-04-21 11:41:00,66.1,40.0,29.88,NW,305,0.0,-999.0,38,-99.99,,,0.00,weatherlink.com 1.10,2013-04-21 18:41:00,
2013-04-21 11:56:00,65.2,38.0,29.88,North,6,0.0,-999.0,37,-99.99,,,0.00,weatherlink.com 1.10,2013-04-21 18:56:00,
2013-04-21 12:11:00,65.4,38.0,29.88,ENE,65,1.0,-999.0,37,-99.99,,,0.00,weatherlink.com 1.10,2013-04-21 19:11:00,
2013-04-21 12:26:00,65.7,40.0,29.89,ESE,113,0.0,-999.0,39,-99.99,,,0.00,weatherlink.com 1.10,2013-04-21 19:26:00,
2013-04-21 12:41:00,67.0,35.0,29.88,North,352,2.0,-999.0,31,-99.99,,,0.00,weatherlink.com 1.10,2013-04-21 19:41:00,
2013-04-21 12:56:00,67.0,36.0,29.88,SE,130,0.0,-999.0,32,-99.99,,,0.00,weatherlink.com 1.10,2013-04-21 19:56:00,
2013-04-21 13:11:00,65.4,35.0,29.89,SSE,157,1.0,-999.0,32,-99.99,,,0.00,weatherlink.com 1.10,2013-04-21 20:11:00,
2013-04-21 13:26:00,64.4,30.0,29.89,South,172,5.0,-999.0,27,-99.99,,,0.00,weatherlink.com 1.10,2013-04-21 20:26:00,
2013-04-21 13:41:00,66.5,32.0,29.89,NNW,336,3.0,-999.0,28,-99.99,,,0.00,weatherlink.com 1.10,2013-04-21 20:41:00,
2013-04-21 13:56:00,67.5,27.0,29.88,NW,309,5.0,-999.0,22,-99.99,,,0.00,weatherlink.com 1.10,2013-04-21 20:56:00,
2013-04-21 14:11:00,67.0,29.0,29.87,WNW,302,0.0,-999.0,24,-99.99,,,0.00,weatherlink.com 1.10,2013-04-21 21:11:00,
2013-04-21 14:26:00,66.5,31.0,29.89,North,356,1.0,-999.0,27,-99.99,,,0.00,weatherlink.com 1.10,2013-04-21 21:26:00,
2013-04-21 14:41:00,66.7,35.0,29.89,NNW,337,0.0,-999.0,31,-99.99,,,0.00,weatherlink.com 1.10,2013-04-21 21:41:00,
2013-04-21 14:56:00,66.5,33.0,29.88,NNW,335,0.0,-999.0,29,-99.99,,,0.00,weatherlink.com 1.10,2013-04-21 21:56:00,
2013-04-21 15:11:00,65.6,33.0,29.88,North,7,0.0,-999.0,30,-99.99,,,0.00,weatherlink.com 1.10,2013-04-21 22:11:00,
2013-04-21 15:26:00,65.4,23.0,29.88,NW,325,0.0,-999.0,20,-99.99,,,0.00,weatherlink.com 1.10,2013-04-21 22:26:00,
2013-04-21 15:41:00,65.9,32.0,29.87,North,352,0.0,-999.0,28,-99.99,,,0.00,weatherlink.com 1.10,2013-04-21 22:41:00,
2013-04-21 15:56:00,65.9,33.0,29.87,West,265,2.0,-999.0,29,-99.99,,,0.00,weatherlink.com 1.10,2013-04-21 22:56:00,
2013-04-21 16:11:00,64.6,31.0,29.87,NW,309,0.0,-999.0,28,-99.99,,,0.00,weatherlink.com 1.10,2013-04-21 23:11:00,
2013-04-21 16:26:00,64.1,29.0,29.85,NW,304,5.0,-999.0,27,-99.99,,,0.00,weatherlink.com 1.10,2013-04-21 23:26:00,
2013-04-21 16:41:00,64.0,29.0,29.85,ESE,106,0.0,-999.0,27,-99.99,,,0.00,weatherlink.com 1.10,2013-04-21 23:41:00,
2013-04-21 16:56:00,62.9,30.0,29.86,NNW,343,0.0,-999.0,29,-99.99,,,0.00,weatherlink.com 1.10,2013-04-21 23:56:00,
2013-04-21 17:11:00,63.5,29.0,29.86,North,0,0.0,-999.0,27,-99.99,,,0.00,weatherlink.com 1.10,2013-04-22 00:11:00,
2013-04-21 17:26:00,62.7,31.0,29.85,North,357,0.0,-999.0,30,-99.99,,,0.00,weatherlink.com 1.10,2013-04-22 00:26:00,
2013-04-21 17:41:00,63.3,29.0,29.86,NE,34,2.0,-999.0,28,-99.99,,,0.00,weatherlink.com 1.10,2013-04-22 00:41:00,
2013-04-21 17:56:00,63.5,28.0,29.85,North,0,0.0,-999.0,26,-99.99,,,0.00,weatherlink.com 1.10,2013-04-22 00:56:00,
2013-04-21 18:11:00,62.2,27.0,29.86,North,0,1.0,-999.0,26,-99.99,,,0.00,weatherlink.com 1.10,2013-04-22 01:11:00,
2013-04-21 18:26:00,61.4,23.0,29.86,NNE,30,0.0,-999.0,23,-99.99,,,0.00,weatherlink.com 1.10,2013-04-22 01:26:00,
2013-04-21 18:41:00,61.1,21.0,29.86,North,0,5.0,-999.0,21,-99.99,,,0.00,weatherlink.com 1.10,2013-04-22 01:41:00,
2013-04-21 18:56:00,59.5,25.0,29.88,North,0,0.0,-999.0,27,-99.99,,,0.00,weatherlink.com 1.10,2013-04-22 01:56:00,
2013-04-21 19:11:00,57.4,28.0,29.88,North,352,4.0,-999.0,32,-99.99,,,0.00,weatherlink.com 1.10,2013-04-22 02:11:00,
2013-04-21 19:26:00,56.8,22.0,29.86,NNW,336,2.0,-999.0,26,-99.99,,,0.00,weatherlink.com 1.10,2013-04-22 02:26:00,
2013-04-21 19:42:00,56.6,15.0,29.87,NNW,333,0.0,-999.0,19,-99.99,,,0.00,weatherlink.com 1.10,2013-04-22 02:42:00,
2013-04-21 19:56:00,56.3,18.0,29.87,NNW,328,7.0,-999.0,22,-99.99,,,0.00,weatherlink.com 1.10,2013-04-22 02:56:00,
2013-04-21 20:11:00,55.7,22.0,29.88,NW,305,2.0,-999.0,27,-99.99,,,0.00,weatherlink.com 1.10,2013-04-22 03:11:00,
2013-04-21 20:26:00,55.4,23.0,29.84,North,0,0.0,-999.0,29,-99.99,,,0.00,weatherlink.com 1.10,2013-04-22 03:26:00,
2013-04-21 20:41:00,55.0,30.0,29.84,NNE,16,8.0,-999.0,38,-99.99,,,0.00,weatherlink.com 1.10,2013-04-22 03:41:00,
2013-04-21 20:56:00,54.8,32.0,29.85,North,349,4.0,-999.0,43,-99.99,,,0.00,weatherlink.com 1.10,2013-04-22 03:56:00,
2013-04-21 21:11:00,54.4,33.0,29.85,North,8,3.0,-999.0,44,-99.99,,,0.00,weatherlink.com 1.10,2013-04-22 04:11:00,
2013-04-21 21:26:00,54.1,34.0,29.84,NNW,339,5.0,-999.0,47,-99.99,,,0.00,weatherlink.com 1.10,2013-04-22 04:26:00,
2013-04-21 21:41:00,54.0,34.0,29.85,NNE,31,0.0,-999.0,48,-99.99,,,0.00,weatherlink.com 1.10,2013-04-22 04:41:00,
2013-04-21 21:56:00,53.8,35.0,29.85,East,92,0.0,-999.0,49,-99.99,,,0.00,weatherlink.com 1.10,2013-04-22 04:56:00,
2013-04-21 22:11:00,53.7,34.0,29.85,East,85,0.0,-999.0,48,-99.99,,,0.00,weatherlink.com 1.10,2013-04-22 05:11:00,
2013-04-21 22:26:00,53.8,36.0,29.84,NNW,347,0.0,-999.0,51,-99.99,,,0.00,weatherlink.com 1.10,2013-04-22 05:26:00,
2013-04-21 22:41:00,53.5,35.0,29.84,NE,56,5.0,-999.0,50,-99.99,,,0.00,weatherlink.com 1.10,2013-04-22 05:41:00,
2013-04-21 22:56:00,53.7,31.0,29.84,NE,52,4.0,-999.0,43,-99.99,,,0.00,weatherlink.com 1.10,2013-04-22 05:56:00,
2013-04-21 23:11:00,53.7,30.0,29.83,North,0,3.0,-999.0,41,-99.99,,,0.00,weatherlink.com 1.10,2013-04-22 06:11:00,
2013-04-21 23:26:00,53.7,23.0,29.84,ENE,68,3.0,-999.0,30,-99.99,,,0.00,weatherlink.com 1.10,2013-04-22 06:26:00,
2013-04-21 23:41:00,53.4,28.0,29.84,North,0,4.0,-999.0,38,-99.99,,,0.00,weatherlink.com 1.10,2013-04-22 06:41:00,
2013-04-21 23:56:00,53.2,29.0,29.84,NW,311,3.0,-999.0,39,-99.99,,,0.00,weatherlink.com 1.10,2013-04-22 06:56:00,